Orbital Elements at Epoch 2459000.5 (2020-May-31.0) TDB
Reference: JPL 21 (heliocentric ecliptic J2000)
Element | Value | Uncertainty (1-sigma) | Units |
e | .1249725435284398 | 3.7043e-08 | |
a | 2.376101102235812 | 1.0513e-08 | au |
q | 2.079153703808673 | 9.0275e-08 | au |
i | 3.281364892491828 | 4.0757e-06 | deg |
node | 105.8374140584602 | 7.4088e-05 | deg |
peri | 4.220395247489181 | 7.6147e-05 | deg |
M | 310.1078288976385 | 1.9134e-05 | deg |
tp | 2459185.906818995176 (2020-Dec-02.40681900) | 7.163e-05 | TDB |
period | 1337.814197368214 3.66 | 8.8785e-06 2.431e-08 | d yr |
n | .2690956641873006 | 1.7859e-09 | deg/d |
Q | 2.673048500662951 | 1.1827e-08 | au |
|
| | Orbit Determination Parameters
Additional Information
|